CAPE
836 847 848 765 751 888 871 597 492 364 213 595 594 432 381 673 532 202 192 114 269 388 336 558 600 608 786 1226 1440 1630 1601 1383 1105 895 673 612 145 50 0 0 0 1 1 2 2 0 1 0 0 0 1 0 0 0 0 0 0 0 0 0 0 0 0 0 0 0 0 0 0 0 0 0 0 0 0 0 0 0 0 0 0 0 0 0 0
771 876 717 806 910 1039 951 736 402 260 243 372 421 445 411 391 315 186 46 171 91 273 411 534 490 500 815 1114 1499 1546 1546 1424 1176 856 742 709 377 81 0 0 0 2 2 2 2 1 0 3 0 1 1 0 0 1 0 0 0 0 0 0 0 0 0 0 0 0 0 0 0 0 0 0 0 0 0 0 0 0 0 0 0 0 0 0 0
698 902 908 869 1006 1052 979 878 798 475 255 282 464 466 398 250 112 41 35 52 34 260 504 416 421 332 596 881 1594 1598 1487 1431 1189 884 838 805 466 267 3 0 0 0 1 1 1 2 3 0 2 0 1 1 0 1 2 1 0 0 0 0 0 0 0 0 0 0 0 0 0 0 0 0 0 0 0 0 0 0 0 0 0 0 0 0 0
726 925 978 960 1046 1027 918 741 801 741 369 233 521 318 142 24 10 25 40 36 70 405 395 468 531 346 498 953 1355 1542 1463 1407 1170 943 798 791 557 274 115 11 0 0 0 2 2 1 2 0 1 2 1 1 1 1 1 2 0 0 0 0 0 0 0 0 0 0 0 0 0 0 0 0 0 0 0 0 0 0 0 0 0 0 0 0 0
901 918 982 1105 1058 977 825 704 673 580 579 316 307 408 91 19 11 10 49 44 171 428 333 466 663 543 609 876 1448 1397 1334 1416 1236 1124 905 805 588 403 311 68 1 0 0 0 0 1 2 0 0 0 0 1 0 1 2 2 0 0 0 0 0 0 0 0 0 0 0 0 0 0 0 0 0 0 0 0 0 0 0 0 0 0 0 0 0
846 939 910 1039 981 1092 798 729 636 620 496 431 249 426 267 23 15 12 21 19 205 340 325 434 545 608 764 920 1270 1456 1504 1462 1434 1250 1035 841 735 708 492 130 11 0 0 0 0 0 1 0 0 0 0 0 0 1 1 2 0 0 0 0 0 0 0 0 0 0 0 0 0 0 0 0 0 0 0 0 0 0 0 0 0 0 0 0 1
773 887 1115 1160 1131 1200 903 761 619 586 518 452 238 288 456 241 72 7 18 7 76 268 314 331 488 728 1002 866 1015 1174 1493 1495 1466 1308 1063 987 961 842 660 225 1 9 1 0 0 0 0 0 1 0 0 0 0 0 1 2 0 0 0 0 0 0 0 0 0 0 0 0 0 0 0 0 0 0 0 0 0 0 0 0 0 0 0 0 1
914 850 1137 1187 1023 1028 922 786 707 593 463 502 330 258 473 318 9 7 34 0 0 67 201 311 441 602 911 906 732 1001 1330 1228 1399 1205 1064 1018 931 991 913 526 55 6 2 5 1 0 0 0 1 0 0 0 0 0 1 2 0 0 0 0 0 0 0 0 0 0 0 0 0 0 0 0 0 0 0 0 0 0 0 0 0 0 0 0 0
900 797 1220 1141 1094 1042 892 931 764 598 707 488 289 208 337 494 235 77 121 3 0 30 9 74 446 540 482 884 733 750 1172 1042 1078 1322 1058 1021 960 885 894 836 323 0 6 5 12 4 0 0 0 0 0 0 0 1 1 0 1 0 0 0 0 0 0 0 0 0 0 0 0 0 0 0 0 0 0 0 0 0 0 0 0 0 0 0 1
792 806 1206 1164 975 1026 909 958 892 678 625 524 389 353 284 472 647 373 172 43 3 88 43 38 173 394 511 517 570 540 834 980 800 856 1226 1142 1076 866 839 920 692 51 20 12 9 16 21 0 0 0 0 0 0 0 1 0 1 0 0 0 0 0 0 0 0 0 0 0 0 0 0 0 0 0 0 0 0 0 0 0 0 0 0 0 0
685 791 990 1092 1032 955 790 617 884 899 778 597 476 490 403 371 468 588 424 176 62 48 23 45 79 260 363 631 676 614 757 848 823 858 1074 1278 1019 794 778 918 808 436 102 44 15 7 6 0 0 0 0 0 0 0 1 2 1 0 0 0 0 0 0 0 0 0 0 0 0 0 0 0 0 0 0 0 0 0 0 0 0 0 0 0 0
613 770 978 965 1056 897 883 742 914 1038 909 785 637 658 694 559 470 657 573 365 152 47 19 104 108 336 333 501 626 792 699 866 986 828 853 1341 1283 1059 926 938 938 802 342 177 19 11 4 5 4 0 0 0 0 0 0 1 1 1 0 0 2 1 0 0 0 0 0 0 0 0 0 0 0 0 0 0 0 0 0 0 0 0 0 0 0
534 756 844 1038 1068 1020 807 901 994 920 1041 998 927 835 703 655 463 492 522 296 208 186 199 193 391 652 743 675 787 726 721 713 796 897 876 1051 1250 1256 1148 1080 1023 962 629 404 125 27 21 1 2 4 1 5 0 0 0 0 1 0 1 0 1 2 1 0 0 0 0 0 0 0 0 0 0 0 0 0 0 0 0 0 0 0 0 0 0
660 692 876 1161 1297 1226 955 986 1102 1046 1030 1039 914 980 912 731 742 530 284 345 227 159 294 205 223 298 314 282 567 807 792 707 575 787 874 998 1213 1347 1304 1220 1105 986 804 626 375 77 19 7 0 0 0 0 2 0 0 0 0 0 0 0 1 2 1 2 1 0 0 0 0 0 0 0 0 0 0 0 0 0 0 0 1 1 1 1 0
644 812 1032 971 1113 1184 1043 1088 1088 1156 1236 1168 1197 990 861 814 762 597 235 332 434 422 335 274 48 70 303 406 304 402 791 510 620 682 934 1067 1101 1181 1163 1140 1069 972 863 757 514 360 124 20 0 0 0 0 0 0 0 0 0 0 0 0 0 0 2 2 2 1 0 0 0 0 0 0 0 0 0 0 0 0 0 0 0 0 1 0 1
340 566 688 779 1041 1105 1026 1298 1269 1295 1193 1196 1112 1066 1067 1015 780 620 405 340 260 374 291 407 0 302 246 258 359 513 652 720 574 558 586 992 1113 1125 1002 899 906 948 834 734 560 516 448 81 27 2 2 0 0 0 0 1 0 0 0 0 0 0 0 2 1 1 0 0 0 0 0 0 0 0 0 0 0 0 0 0 0 0 0 1 0
424 520 552 719 809 871 928 1325 1483 1454 1323 1195 1014 1051 1019 856 877 712 769 481 430 572 462 361 304 559 250 291 289 331 411 497 1041 1245 961 826 880 994 950 857 768 803 848 785 628 617 582 343 117 25 1 2 0 0 0 0 0 0 0 0 0 0 0 0 0 0 0 0 0 0 0 0 0 0 0 0 0 0 0 0 0 0 0 0 0
472 452 216 538 776 869 981 1262 1475 1440 1306 1002 909 958 1018 877 910 764 758 689 614 544 422 432 364 905 748 523 479 419 496 590 727 892 1152 1024 998 798 965 1029 900 878 877 724 528 496 549 571 395 137 42 38 3 0 0 0 0 0 0 0 0 0 0 0 0 0 0 0 0 0 0 0 0 0 0 0 0 0 0 0 0 0 0 0 0
538 473 465 485 718 865 1117 1344 1326 1549 1218 1123 1020 1081 1042 807 752 880 942 910 804 653 542 500 691 841 750 812 822 1041 783 805 1012 656 584 1203 805 802 739 710 839 799 761 630 561 405 480 488 441 291 129 85 61 7 0 0 0 0 0 0 0 0 0 0 0 0 0 0 0 0 0 0 0 0 0 0 0 0 0 0 0 0 0 0 0
690 620 665 676 696 860 1109 1364 1220 1170 1137 1011 1091 1194 1148 961 874 912 1060 1069 1161 959 694 632 569 709 759 958 953 976 914 716 678 668 734 804 1072 984 861 875 752 747 621 544 441 383 374 451 392 305 247 148 114 72 4 0 0 0 0 0 0 0 0 0 0 0 0 0 0 0 0 0 0 0 0 0 0 0 0 0 0 0 0 0 0
791 872 772 718 631 694 826 1047 1241 1178 1113 958 1087 1190 1238 1078 1150 1138 1238 1109 1429 1272 1119 1095 927 836 1092 1029 895 879 866 909 855 896 909 1030 1022 888 982 896 903 870 703 613 536 508 418 456 465 333 306 169 155 130 84 38 4 0 0 0 0 0 0 0 0 0 0 0 0 0 0 0 0 0 0 0 0 0 0 0 0 0 0 0 0
987 966 1049 907 836 799 818 887 954 1020 1061 1094 1219 1325 1414 1478 1393 1417 1421 1499 1505 1493 1481 1318 1267 1130 996 1090 1068 979 837 847 883 1190 1231 1069 970 923 734 871 824 905 921 876 704 577 464 440 495 426 294 217 204 172 150 125 102 25 13 0 0 0 0 0 0 0 0 0 0 0 0 0 0 0 0 0 0 0 0 0 0 0 0 0 0
1317 1255 1189 1099 1107 988 828 819 908 1067 1073 1203 1270 1381 1626 1532 1549 1688 1555 1415 1338 1500 1526 1495 1314 1232 1278 1157 1012 1146 1058 1101 1110 1259 1328 1383 1177 1011 803 965 854 942 1337 1072 845 650 545 520 480 503 490 296 178 197 211 217 78 13 0 0 0 0 0 0 0 0 0 0 0 0 0 0 0 0 1 1 0 0 0 0 0 0 0 0 0
1678 1586 1392 1230 1197 1168 1098 1004 955 1065 1324 1174 1246 1342 1462 1474 1568 1547 1586 1667 1337 1229 1340 1414 1272 1258 1376 1358 1242 1331 1241 1460 1378 1377 1450 1415 1357 1274 1191 1210 1064 1030 911 1241 997 815 704 507 444 459 492 336 172 136 174 196 142 2 12 0 0 0 0 0 0 0 0 0 0 0 0 0 0 0 0 0 0 0 0 0 0 0 0 0 0
2060 1832 1654 1152 1244 1268 1309 1197 1259 1360 1490 1384 1298 1207 1223 1356 1485 1533 1502 1353 1509 1324 1004 971 1011 1008 982 1321 1292 1309 1291 1450 1514 1491 1492 1624 1710 1467 1442 723 799 1240 997 996 1064 774 616 616 442 349 338 300 193 115 133 188 225 56 0 0 0 0 0 0 0 0 0 0 0 0 0 0 0 0 0 0 0 0 0 0 0 0 0 0 0
2158 2113 1886 1345 1230 1172 1335 1268 1231 1314 1410 1489 1212 1258 1319 1424 1506 1568 1525 1397 1164 1226 1216 1209 1250 1165 1151 1179 1178 1157 1277 1459 1636 1673 1674 1637 1643 1338 1148 826 1087 1177 1088 1009 1005 856 809 534 398 359 294 236 164 141 192 161 270 28 0 6 83 0 0 0 0 0 0 0 0 0 0 0 0 0 0 0 0 0 0 0 0 0 0 0 0
2125 2201 2076 1467 1532 1440 1450 1494 1383 1264 1456 1474 1401 1456 1554 1627 1584 1584 1736 1565 1505 1418 1354 1241 1124 948 1163 1201 1268 1204 1244 1404 1598 1808 1643 1602 1531 1607 1542 1589 1364 1326 1210 1141 1106 1024 958 755 694 477 348 352 229 184 156 296 210 50 0 0 19 0 0 0 0 0 0 0 0 0 0 0 0 0 0 0 0 0 0 0 0 0 0 0 0
2328 2354 2193 1612 1788 1654 1609 1668 1678 1590 1750 1867 1778 1683 1926 1939 1768 1692 1861 1792 1713 1689 1592 1432 1436 1308 1253 1211 1258 1209 1207 1182 1353 1520 1549 1739 1685 1605 1564 1348 1080 1224 1264 1258 1199 1135 1082 962 828 783 575 384 298 280 178 68 249 0 0 0 7 35 0 0 0 0 0 0 0 0 0 0 0 0 0 0 0 0 0 0 0 0 0 0 0
2406 2438 2450 2051 1950 1855 1738 1771 1879 1944 1987 2042 2000 1987 1923 1692 1650 1699 1683 1720 1681 1537 1683 1454 1458 1463 1430 1232 1131 1063 1175 880 982 931 1192 1321 1413 1537 1436 1315 1266 1102 1037 1086 1254 1268 1329 1022 993 990 817 592 530 424 382 316 222 38 50 0 5 126 35 0 0 0 0 0 0 0 0 0 0 0 0 0 0 0 0 0 0 0 0 0 0
2571 2536 2442 2023 2073 1851 1863 1865 2026 2014 1997 1892 1861 1806 1729 1682 1780 1714 1632 1718 1769 1734 1536 1500 1432 1106 1163 1067 1029 822 1003 1083 1023 1141 1198 1020 1030 1174 1332 1318 1355 1165 1174 1052 690 1152 1416 1391 909 838 858 745 514 608 627 540 34 0 12 32 44 67 0 0 0 0 0 0 0 0 0 0 0 0 0 0 0 0 0 0 0 0 0 0 0
2410 2470 2371 2201 2114 2069 1959 1913 2001 1982 1922 1802 1778 1781 1745 1836 1842 1780 1657 1602 1602 1566 1550 1488 1407 1164 931 812 815 892 1083 1160 1286 1358 1235 1180 790 814 1120 1261 1386 1284 1193 1129 1009 947 1106 1468 1437 1133 957 906 669 543 460 456 160 0 19 4 2 1 0 0 0 0 0 0 0 0 21 0 0 0 0 0 0 0 0 0 0 0 0 0 0
2379 2243 2054 2140 2137 1888 1856 1952 1704 1805 1865 1638 1594 1735 1854 1893 1869 1763 1784 1670 1534 1510 1497 1448 1404 1136 783 850 806 829 884 983 1133 1211 1149 1056 680 795 949 1058 1040 1208 1180 1155 1050 950 1112 1408 1515 1406 984 1072 984 914 837 428 77 0 76 0 10 0 0 0 0 0 0 0 183 183 164 110 0 0 0 0 0 0 0 0 0 0 0 0 0
1988 2105 2016 1958 1997 1839 1829 1930 1830 1722 1728 1991 1887 1724 1661 1834 1825 1812 1784 1615 1524 1571 1454 1483 1320 1273 792 892 833 718 799 757 696 740 754 761 582 837 985 954 1069 1088 1175 1193 1196 1219 1015 973 1005 1059 1203 1100 1122 1035 873 697 746 96 0 53 110 84 10 9 68 264 263 252 241 210 195 179 0 0 0 0 0 0 0 0 0 0 0 0 0
2110 1708 2001 2013 1975 1971 1668 1660 1957 2029 1667 2054 2127 1845 1755 1879 1854 1865 1821 1672 1600 1429 1506 1390 1376 1402 1122 929 888 691 644 664 605 604 458 548 437 726 605 761 761 897 1091 1163 1213 1116 1241 1120 1012 918 893 851 856 903 1016 1114 996 932 386 39 141 239 128 168 134 119 12 282 268 263 237 223 31 0 0 0 0 0 0 0 0 0 0 0 0
1919 1890 1683 1754 1834 1926 1705 1586 1568 2048 1996 1972 2037 1740 1761 1870 1878 1847 1727 1644 1680 1631 1553 1419 1398 1408 1397 1211 1020 920 858 797 781 666 784 738 528 551 628 644 701 802 756 1074 1212 1286 1285 1218 1087 1082 940 877 962 910 813 900 767 846 822 759 314 187 164 170 148 337 0 262 350 304 272 210 42 0 0 0 0 0 0 0 0 0 0 0 0
1828 1734 1612 1660 1629 1666 1948 1546 1645 1692 1948 2216 2053 1808 1693 1779 1884 1856 1780 1683 1654 1677 1420 1406 1365 1299 1396 1318 1264 1128 1005 964 1014 1002 869 973 970 842 790 756 702 754 876 964 1102 1256 1213 1215 1228 1033 1054 1036 996 912 646 598 689 388 534 804 685 430 277 22 8 262 0 327 390 334 270 188 0 0 0 0 0 0 0 0 0 0 0 0 0
1609 1561 1549 1581 1731 1808 1952 1996 2042 1961 1853 2150 2211 1987 2042 1940 1846 1808 1796 1603 1650 1612 1591 1565 1377 1376 1404 1403 1310 1226 1087 1167 1174 1059 1059 1102 949 939 918 788 738 825 742 781 922 986 1106 1125 1206 1233 1145 1096 1066 1096 696 824 574 470 384 598 638 705 292 242 262 272 328 435 418 349 278 50 0 0 0 0 0 0 0 0 0 0 0 0 0
1659 1718 1750 1605 1530 1580 1798 1844 1829 1869 1809 1673 1784 1749 2074 2021 1736 1550 1754 1806 1796 1763 1672 1640 1515 1445 1517 1512 1472 1310 1200 1273 1360 1344 1214 1219 1094 1012 1028 905 780 830 904 936 977 1023 1126 1192 1177 1226 1268 1254 1261 1245 1082 894 815 462 640 534 433 299 422 415 388 408 478 476 447 396 245 0 0 0 0 0 0 0 0 0 0 0 0 0 0
1882 1792 1652 1676 1521 1487 1447 1518 1523 1632 1773 1690 1830 1679 1720 2030 1709 1616 1747 1815 1839 1845 1798 1719 1566 1598 1484 1409 1451 1432 1346 1367 1415 1462 1461 1404 1248 1251 1141 1137 973 1017 1020 1061 875 967 1093 1171 1194 1180 1165 1247 1300 1309 1051 762 699 772 660 862 644 384 436 612 370 285 250 447 464 369 0 0 0 0 0 0 0 0 0 0 0 0 0 0 0
2142 2015 1950 1731 1381 1312 1229 1278 1327 1498 1484 1750 1783 1911 1749 1744 1630 1524 1753 1806 1778 1775 1802 1735 1736 1679 1563 1473 1478 1482 1552 1492 1517 1558 1469 1343 1339 1272 1265 1217 1256 1222 1183 1110 1083 945 951 1047 1076 1060 1109 1154 1251 1279 979 977 677 569 341 476 673 747 630 604 438 258 267 1 239 0 0 0 0 0 0 0 0 0 0 0 0 0 0 0 0
1958 1885 1840 1778 1293 1202 1329 1528 1379 1457 1532 1595 1539 1906 2103 1758 1936 1756 1782 1812 1833 1800 1824 1888 1879 1722 1468 1660 1650 1734 1654 1302 1219 1278 1314 1273 1546 1479 1406 1375 1264 1312 1342 1312 1112 1044 996 963 1008 1077 1072 1102 1161 1270 1309 1272 699 778 815 692 433 546 680 680 536 324 172 29 0 0 0 0 0 0 0 0 0 0 0 0 0 0 0 0 0
2180 2173 1576 1326 1815 1604 1380 1424 1586 1628 1613 1796 1553 1588 1656 2032 2042 1848 1857 1966 1984 1926 1833 1776 1762 1575 1731 1840 1791 1371 1309 1286 1219 1175 1174 1188 1171 1488 1790 1731 1404 1247 1317 1400 1361 1266 1183 1128 1032 983 1027 1088 1089 1240 1349 1391 992 945 805 791 863 630 627 864 544 545 181 16 13 7 0 0 0 0 0 0 0 0 0 0 0 0 0 0 0
1823 1830 1624 1664 1745 1700 1505 1397 1353 1502 1670 1711 1543 1460 1413 1436 1726 1968 1910 1962 2003 1971 1833 1881 1848 1857 1845 1776 1940 1614 1285 1275 1300 1216 1108 1059 1083 1048 1067 1236 1498 1604 1544 1416 1492 1539 1396 1262 1062 1128 1169 1140 1187 1260 1296 1297 1379 1409 1181 1028 923 866 955 876 726 450 191 128 4 30 19 1 0 0 0 0 0 0 0 0 0 0 0 0 0
1861 1725 1883 1779 1794 1768 1723 1569 1690 1698 1690 1477 1425 1406 1370 1379 1527 1796 1928 1879 1823 1778 1477 1591 1876 1855 1882 1954 1905 1722 1886 1648 1302 1272 1174 1114 1067 1028 1022 1104 1160 1216 1335 1577 1789 1740 1659 1494 1406 1403 1342 1189 1229 1381 1373 1360 1450 1364 1298 1113 969 1010 1019 917 704 573 275 208 107 17 36 34 0 0 0 0 0 0 0 0 0 0 0 0 0
2065 1806 1842 1930 1708 1728 1756 1792 1858 1842 1891 1599 1337 1273 1302 1340 1594 1620 1874 1846 1768 1812 1796 1868 1885 1836 1798 1867 1896 1584 1912 1565 1352 1398 1221 1142 1105 1043 1063 1144 1216 1254 1253 1219 1168 1280 1933 1846 1564 1558 1521 1419 1339 1387 1400 1458 1497 1500 1565 1322 1158 1062 1044 982 863 596 663 261 144 51 59 86 0 0 0 0 0 0 0 0 0 0 0 0 0
2161 2156 1995 1934 1737 1814 1950 1954 1874 2037 1961 1814 1506 1306 1258 1425 1636 1583 1624 1857 1923 1987 1938 2012 2127 2115 2071 1983 1831 1814 1966 1734 1377 1508 1580 1604 1274 1132 1125 1232 1360 1524 1513 1490 1466 1397 1329 1463 1717 1733 1730 1436 1502 1580 1649 1488 1472 1554 1546 1402 1183 1200 1032 795 831 652 569 274 166 107 78 99 24 0 6 0 0 0 0 0 0 0 0 0 0
1702 1860 2110 2146 2149 1955 1973 2164 2104 2144 2185 1860 1721 1513 1476 1600 1654 1534 1453 1714 1932 1924 1963 2143 2290 2310 2265 2212 2185 2084 2142 2302 1941 1708 1642 1697 1825 1588 1294 1271 1411 1619 1718 1779 1751 1673 1580 1554 1533 1493 1529 1467 1353 1476 1690 1727 1662 1649 1618 1531 1408 1287 828 763 710 615 506 426 279 177 165 127 69 3 1 0 0 0 0 0 0 0 0 0 0
2172 2213 2262 2186 1835 1994 2165 2166 2224 2284 2365 1972 1872 1692 1602 1612 1662 1547 1432 1554 1716 1890 1965 1957 2213 2284 2270 1990 2233 2124 2302 2440 2192 1716 1508 1748 1964 1994 1852 1599 1435 1604 1737 1845 1836 1725 1674 1650 1640 1654 1660 1568 1483 1480 1525 1692 1704 1627 1235 886 954 1114 990 689 659 571 587 513 407 280 224 168 42 0 1 139 195 180 92 0 0 0 0 0 0
1823 1852 2016 2069 1967 2050 2140 2253 2244 2297 2400 2172 2000 1892 1804 1768 1684 1561 1443 1405 1671 1809 1880 1893 1995 2101 2107 2175 2170 2140 2261 2332 2163 1897 1594 1538 2148 2092 2009 1935 1680 1684 1717 1927 1919 1810 1716 1615 1649 1691 1709 1615 1466 1338 1218 949 951 1276 1075 1103 830 696 735 791 753 572 497 365 409 370 282 248 229 224 258 240 156 145 77 0 0 0 0 0 0
2222 2060 2095 2382 2484 2430 2039 2350 2326 2382 2359 2350 2140 2025 1906 1880 1769 1604 1513 1371 1616 1616 1737 1828 1718 1629 1833 1694 1522 1903 2073 2177 2074 1920 1701 1497 1874 2108 2141 1865 1877 1891 1751 1705 1572 1637 1623 1601 1652 1632 1625 1598 1450 1367 1265 1143 987 826 733 842 819 689 746 709 746 686 546 375 364 378 301 304 275 251 240 182 0 0 179 0 0 0 0 0 0
1983 1932 2091 2468 2154 2119 2196 2482 2137 2180 2277 2286 2074 1987 1956 1904 1792 1624 1500 1638 1586 1534 1494 1746 1782 1686 1636 1530 1344 1470 1714 1974 1965 1936 1719 1501 1549 2130 2149 2124 1988 1989 1801 1865 1619 1767 1403 1304 1420 1585 1516 1543 1467 1415 1355 1214 1019 832 744 676 745 880 1021 840 714 670 506 456 355 400 308 259 221 228 241 162 70 0 0 0 0 0 0 0 0
Wind_Speed
7 6 5 4 4 4 4 4 4 4 7 6 9 11 11 13 14 15 15 14 11 10 7 5 5 5 5 7 7 7 8 9 10 13 14 13 15 nan nan nan nan nan nan nan nan nan nan nan nan nan nan nan nan nan nan nan nan nan nan nan nan nan nan nan nan nan nan nan nan nan nan nan nan nan nan nan nan nan nan nan nan nan nan nan nan
7 7 6 5 4 4 4 4 3 4 6 7 8 10 12 13 15 16 nan 15 nan 10 7 7 4 4 5 6 7 7 8 8 11 12 14 14 14 nan nan nan nan nan nan nan nan nan nan nan nan nan nan nan nan nan nan nan nan nan nan nan nan nan nan nan nan nan nan nan nan nan nan nan nan nan nan nan nan nan nan nan nan nan nan nan nan
8 8 8 6 5 5 4 4 4 5 6 7 9 10 12 13 14 nan nan nan nan 11 7 8 6 5 5 6 7 7 8 8 10 12 13 14 14 18 nan nan nan nan nan nan nan nan nan nan nan nan nan nan nan nan nan nan nan nan nan nan nan nan nan nan nan nan nan nan nan nan nan nan nan nan nan nan nan nan nan nan nan nan nan nan nan
9 8 8 7 6 5 5 5 4 6 6 8 10 11 12 nan nan nan nan nan nan 12 8 8 7 4 6 6 7 7 9 9 10 12 13 14 14 15 18 nan nan nan nan nan nan nan nan nan nan nan nan nan nan nan nan nan nan nan nan nan nan nan nan nan nan nan nan nan nan nan nan nan nan nan nan nan nan nan nan nan nan nan nan nan nan
11 9 9 8 7 6 6 5 6 6 8 8 11 12 nan nan nan nan nan nan 13 12 10 8 8 6 4 6 6 7 9 10 10 11 13 14 15 15 17 nan nan nan nan nan nan nan nan nan nan nan nan nan nan nan nan nan nan nan nan nan nan nan nan nan nan nan nan nan nan nan nan nan nan nan nan nan nan nan nan nan nan nan nan nan nan
12 10 10 10 9 9 8 8 7 7 9 10 11 13 13 nan nan nan nan nan 14 13 11 9 9 7 5 5 6 6 8 9 11 11 12 13 15 15 16 17 nan nan nan nan nan nan nan nan nan nan nan nan nan nan nan nan nan nan nan nan nan nan nan nan nan nan nan nan nan nan nan nan nan nan nan nan nan nan nan nan nan nan nan nan nan
12 13 11 12 12 11 10 10 9 9 9 11 11 13 13 14 nan nan nan nan nan 14 12 11 10 9 7 5 5 7 8 9 10 10 12 12 13 15 15 15 nan nan nan nan nan nan nan nan nan nan nan nan nan nan nan nan nan nan nan nan nan nan nan nan nan nan nan nan nan nan nan nan nan nan nan nan nan nan nan nan nan nan nan nan nan
13 14 14 13 14 13 12 12 10 10 10 12 11 12 13 13 nan nan nan nan nan nan 13 12 11 10 9 6 6 7 7 9 10 9 10 12 13 15 16 15 nan nan nan nan nan nan nan nan nan nan nan nan nan nan nan nan nan nan nan nan nan nan nan nan nan nan nan nan nan nan nan nan nan nan nan nan nan nan nan nan nan nan nan nan nan
14 15 16 14 15 15 13 13 12 10 11 12 11 11 12 13 14 nan 14 nan nan nan nan nan 12 11 11 10 8 8 8 8 9 9 9 11 13 15 16 16 17 nan nan nan nan nan nan nan nan nan nan nan nan nan nan nan nan nan nan nan nan nan nan nan nan nan nan nan nan nan nan nan nan nan nan nan nan nan nan nan nan nan nan nan nan
15 15 17 16 16 16 15 13 13 11 11 11 11 10 11 12 13 13 13 nan nan nan nan nan 13 12 11 11 10 10 10 8 8 9 9 11 12 13 16 17 17 nan nan nan nan nan nan nan nan nan nan nan nan nan nan nan nan nan nan nan nan nan nan nan nan nan nan nan nan nan nan nan nan nan nan nan nan nan nan nan nan nan nan nan nan
15 15 17 19 17 16 15 13 13 12 11 11 12 10 10 11 11 13 12 12 nan nan nan nan nan 13 12 13 12 11 10 9 8 9 11 11 12 13 14 17 18 19 21 nan nan nan nan nan nan nan nan nan nan nan nan nan nan nan nan nan nan nan nan nan nan nan nan nan nan nan nan nan nan nan nan nan nan nan nan nan nan nan nan nan nan
16 16 18 19 18 17 16 14 13 12 11 11 12 11 10 11 11 13 13 11 11 nan nan 13 14 13 12 13 13 12 12 12 10 9 11 13 13 14 15 17 19 20 21 21 nan nan nan nan nan nan nan nan nan nan nan nan nan nan nan nan nan nan nan nan nan nan nan nan nan nan nan nan nan nan nan nan nan nan nan nan nan nan nan nan nan
17 17 18 19 20 19 16 16 14 13 12 11 12 11 11 10 10 11 12 11 11 12 14 14 14 14 14 13 13 13 11 12 13 12 13 14 14 15 15 16 18 21 21 21 20 nan nan nan nan nan nan nan nan nan nan nan nan nan nan nan nan nan nan nan nan nan nan nan nan nan nan nan nan nan nan nan nan nan nan nan nan nan nan nan nan
18 18 19 19 21 21 20 19 17 15 14 12 11 11 11 10 10 10 10 11 10 12 14 14 13 14 15 15 13 14 14 14 14 14 14 15 16 17 17 17 19 21 22 21 21 nan nan nan nan nan nan nan nan nan nan nan nan nan nan nan nan nan nan nan nan nan nan nan nan nan nan nan nan nan nan nan nan nan nan nan nan nan nan nan nan
18 19 20 21 22 20 20 20 17 17 16 14 13 11 11 10 10 10 10 10 10 11 14 14 nan nan 14 14 14 14 17 15 14 15 16 16 16 17 18 19 19 21 23 21 20 19 20 nan nan nan nan nan nan nan nan nan nan nan nan nan nan nan nan nan nan nan nan nan nan nan nan nan nan nan nan nan nan nan nan nan nan nan nan nan nan
17 19 21 22 22 19 17 18 17 17 16 15 13 11 10 9 9 9 9 11 10 12 13 14 nan 16 14 14 14 14 14 16 16 17 18 18 18 18 19 18 20 22 22 22 20 20 19 nan nan nan nan nan nan nan nan nan nan nan nan nan nan nan nan nan nan nan nan nan nan nan nan nan nan nan nan nan nan nan nan nan nan nan nan nan nan
20 19 21 23 20 18 17 18 18 17 17 16 14 11 10 8 8 9 10 10 12 12 12 14 12 11 12 15 14 14 13 14 18 17 19 19 19 20 20 20 21 22 22 20 20 20 20 20 20 nan nan nan nan nan nan nan nan nan nan nan nan nan nan nan nan nan nan nan nan nan nan nan nan nan nan nan nan nan nan nan nan nan nan nan nan
21 19 19 21 19 18 19 19 19 18 17 15 14 13 10 8 8 9 10 9 10 13 13 13 12 9 7 9 10 12 15 15 16 17 23 18 18 19 21 22 21 22 21 20 19 19 20 20 21 21 nan nan nan nan nan nan nan nan nan nan nan nan nan nan nan nan nan nan nan nan nan nan nan nan nan nan nan nan nan nan nan nan nan nan nan
21 20 18 18 18 18 19 19 20 19 16 15 14 13 12 9 9 9 9 11 10 11 13 14 13 9 8 8 8 12 14 16 18 17 17 23 19 19 21 21 23 23 22 20 19 19 19 20 20 21 21 nan nan nan nan nan nan nan nan nan nan nan nan nan nan nan nan nan nan nan nan nan nan nan nan nan nan nan nan nan nan nan nan nan nan
21 20 18 17 18 17 18 19 19 16 16 14 14 15 14 12 10 9 9 10 10 10 12 13 13 11 10 10 10 10 12 13 13 13 15 16 22 21 19 21 23 23 22 20 19 19 19 19 19 19 19 19 19 nan nan nan nan nan nan nan nan nan nan nan nan nan nan nan nan nan nan nan nan nan nan nan nan nan nan nan nan nan nan nan nan
22 21 20 18 18 18 17 17 16 14 15 14 14 14 12 11 11 10 10 10 11 9 10 12 13 11 13 10 10 11 13 15 15 16 16 17 17 20 18 23 24 23 22 21 20 19 19 20 19 16 17 18 18 18 nan nan nan nan nan nan nan nan nan nan nan nan nan nan nan nan nan nan nan nan nan nan nan nan nan nan nan nan nan nan nan
23 23 23 20 19 20 19 17 15 15 15 14 15 14 12 11 11 11 11 10 11 10 9 10 12 11 12 12 12 13 13 15 18 18 18 16 14 15 17 23 25 20 23 24 23 21 20 21 20 17 16 17 18 17 17 17 17 nan nan nan nan nan nan nan nan nan nan nan nan nan nan nan nan nan nan nan nan nan nan nan nan nan nan nan nan
26 25 23 22 21 20 20 19 19 17 15 14 15 14 14 13 12 12 11 10 11 10 10 8 9 10 10 11 12 13 14 16 18 19 18 16 16 16 14 14 16 18 25 25 22 23 22 22 21 19 17 17 17 18 17 17 nan nan nan nan nan nan nan nan nan nan nan nan nan nan nan nan nan nan nan nan nan nan nan nan nan nan nan nan nan
28 28 25 23 23 22 20 21 21 19 17 17 16 16 16 14 13 13 13 12 10 10 11 10 8 8 9 9 10 11 13 15 17 18 18 16 15 13 13 13 15 18 18 25 24 21 23 23 23 21 19 17 18 18 18 17 17 nan nan nan nan nan nan nan nan nan nan nan nan nan nan nan nan nan nan nan nan nan nan nan nan nan nan nan nan
29 27 28 25 25 22 20 20 21 21 21 20 19 17 17 16 14 12 13 12 12 10 11 10 9 8 9 10 10 11 12 14 16 17 17 16 16 14 13 13 12 15 16 20 23 22 22 23 23 22 21 20 19 19 19 18 16 nan nan nan nan nan nan nan nan nan nan nan nan nan nan nan nan nan nan nan nan nan nan nan nan nan nan nan nan
31 30 30 30 27 23 21 20 19 20 21 23 21 19 18 17 15 14 12 12 13 11 11 11 11 9 9 9 10 11 12 14 16 17 17 17 16 16 13 12 12 14 16 17 19 20 23 22 22 23 22 21 20 20 20 18 17 nan nan nan nan nan nan nan nan nan nan nan nan nan nan nan nan nan nan nan nan nan nan nan nan nan nan nan nan
34 33 33 32 30 26 24 22 20 20 24 26 25 23 21 19 17 15 14 14 13 13 13 12 12 11 11 11 11 12 13 14 15 16 16 16 15 15 13 11 12 14 15 16 17 19 19 20 22 23 23 22 21 20 21 20 18 nan nan nan nan nan nan nan nan nan nan nan nan nan nan nan nan nan nan nan nan nan nan nan nan nan nan nan nan
38 37 37 34 33 30 27 25 23 23 26 27 27 25 23 21 19 16 14 16 13 12 13 13 13 12 12 12 12 12 13 14 14 15 14 14 14 15 14 13 11 12 15 16 17 18 20 19 21 22 23 24 23 22 22 nan 18 nan nan nan nan nan nan nan nan nan nan nan nan nan nan nan nan nan nan nan nan nan nan nan nan nan nan nan nan
44 41 40 37 35 33 29 28 26 26 26 27 26 26 24 21 19 17 15 14 14 12 14 13 14 13 13 12 12 12 12 13 14 14 14 14 14 13 13 12 12 11 14 14 17 18 20 20 18 22 24 23 23 24 23 23 23 nan nan nan nan 19 nan nan nan nan nan nan nan nan nan nan nan nan nan nan nan nan nan nan nan nan nan nan nan
50 46 43 41 38 35 34 32 30 27 26 28 27 25 24 23 21 18 16 15 15 16 14 14 13 13 14 14 14 12 12 11 13 14 13 13 13 13 12 11 12 11 14 13 14 19 19 21 19 20 22 23 23 23 23 23 nan nan nan nan nan nan nan nan nan nan nan nan nan nan nan nan nan nan nan nan nan nan nan nan nan nan nan nan nan
52 50 50 46 42 39 37 34 33 31 29 28 27 27 26 25 22 20 17 16 15 15 15 14 14 14 14 14 15 14 13 12 12 13 13 13 12 11 10 10 11 11 12 12 12 18 18 17 19 20 20 22 22 23 23 22 30 nan nan nan nan nan nan nan nan nan nan nan nan nan nan nan nan nan nan nan nan nan nan nan nan nan nan nan nan
55 54 51 48 44 42 41 38 35 34 33 31 28 28 27 25 24 22 19 17 15 14 13 15 16 15 14 16 16 16 15 13 13 13 12 12 11 10 10 10 10 10 11 12 11 13 20 19 18 19 19 18 19 20 21 23 nan nan nan nan nan nan nan nan nan nan nan nan 32 32 33 34 nan nan nan nan nan nan nan nan nan nan nan nan nan
52 55 52 49 47 45 42 44 37 37 35 33 31 30 29 26 25 23 20 17 15 15 15 15 16 16 16 18 19 18 16 13 13 13 11 10 10 10 9 9 9 9 10 11 11 12 16 18 17 18 19 19 18 20 21 22 22 nan nan nan 21 nan nan nan nan 34 34 34 32 32 34 35 nan nan nan nan nan nan nan nan nan nan nan nan nan
48 49 50 49 47 47 45 40 40 39 36 34 33 32 30 28 26 26 22 18 16 15 16 16 17 19 19 19 20 20 18 15 14 12 11 10 10 10 10 9 8 9 9 9 10 10 12 17 18 18 19 20 18 21 21 21 21 19 22 nan 23 23 22 22 20 26 nan 35 34 34 34 35 nan nan nan nan nan nan nan nan nan nan nan nan nan
43 44 48 52 50 50 49 46 39 39 37 35 34 32 31 29 28 25 23 20 18 17 17 17 18 20 22 23 21 20 21 19 17 15 12 10 10 9 9 9 8 8 8 9 8 9 10 13 16 18 18 19 20 19 21 23 20 21 19 20 22 23 22 22 23 21 nan 36 37 35 35 37 nan nan nan nan nan nan nan nan nan nan nan nan nan
41 43 46 52 56 55 52 47 41 39 38 39 37 34 31 30 30 26 23 23 21 19 19 20 21 22 23 27 26 22 20 20 21 20 18 15 13 11 8 9 8 8 8 8 8 8 8 8 13 17 18 19 20 20 20 20 19 20 22 20 21 21 22 nan nan 23 nan 40 39 37 37 38 nan nan nan nan nan nan nan nan nan nan nan nan nan
39 41 40 45 56 60 56 51 47 44 42 42 38 36 35 34 33 31 27 25 24 22 22 22 23 23 24 27 29 25 22 21 21 22 21 19 17 14 11 10 9 9 9 8 7 8 8 8 10 13 14 16 17 18 20 21 22 22 21 21 20 21 23 23 23 28 38 39 39 37 37 nan nan nan nan nan nan nan nan nan nan nan nan nan nan
39 40 40 41 50 58 58 51 49 49 47 44 40 38 37 36 35 33 30 28 27 26 25 25 25 25 25 27 31 30 27 24 24 25 23 20 18 16 14 14 12 11 11 10 9 8 7 8 9 10 13 15 16 17 18 20 20 19 20 21 23 23 23 24 25 26 29 34 33 34 35 nan nan nan nan nan nan nan nan nan nan nan nan nan nan
40 42 41 40 42 50 57 53 49 50 49 47 44 42 40 38 36 33 31 30 30 30 27 26 25 26 26 29 31 32 30 28 26 26 27 25 23 18 16 16 14 13 14 14 12 11 9 8 9 10 11 13 15 16 19 20 21 23 23 21 19 25 26 26 26 26 29 31 34 37 nan nan nan nan nan nan nan nan nan nan nan nan nan nan nan
38 41 44 43 41 44 54 56 53 54 52 49 46 43 40 39 37 35 32 31 30 30 29 28 27 28 29 30 32 34 34 31 29 28 29 29 28 22 19 18 17 15 15 15 15 14 12 12 11 11 12 13 15 17 18 21 23 23 24 23 21 21 24 27 28 27 28 nan 32 nan nan nan nan nan nan nan nan nan nan nan nan nan nan nan nan
41 41 45 45 41 42 51 58 58 60 56 51 50 46 42 39 41 38 35 32 30 30 30 30 30 30 30 31 31 34 37 36 34 31 30 32 31 26 23 25 22 18 18 18 16 16 15 13 13 13 13 14 15 17 20 23 24 25 25 24 22 23 24 23 27 31 30 nan nan nan nan nan nan nan nan nan nan nan nan nan nan nan nan nan nan
44 48 48 41 42 43 48 52 57 60 59 55 52 46 43 42 41 40 38 35 32 32 32 31 32 31 30 31 31 34 39 41 40 38 35 34 31 27 25 27 27 23 22 20 18 18 18 16 15 15 14 15 17 18 19 22 24 24 26 26 23 24 25 24 24 25 33 nan nan nan nan nan nan nan nan nan nan nan nan nan nan nan nan nan nan
44 46 43 41 46 49 45 46 47 51 54 54 47 44 40 38 40 40 39 39 35 34 33 33 34 33 31 30 31 36 41 42 41 43 43 38 33 28 22 21 23 25 26 25 21 20 20 18 17 17 15 14 17 19 21 22 24 25 27 28 27 26 26 25 25 28 36 34 nan nan nan nan nan nan nan nan nan nan nan nan nan nan nan nan nan
46 46 43 41 47 49 48 46 45 45 46 47 43 41 39 39 40 40 40 40 39 37 33 32 35 35 33 32 33 35 37 39 41 41 43 42 37 30 26 22 21 21 25 27 25 23 23 22 21 20 17 14 16 19 20 23 25 25 27 28 28 28 28 27 28 28 35 41 36 nan nan nan nan nan nan nan nan nan nan nan nan nan nan nan nan
50 43 41 41 40 44 44 41 42 41 42 44 39 39 41 41 40 40 42 41 39 37 35 33 33 35 35 34 35 36 39 43 42 39 42 44 40 34 30 25 23 23 22 21 21 22 25 25 24 23 23 20 17 19 21 21 23 23 26 28 27 27 28 29 30 32 37 43 38 nan nan nan nan nan nan nan nan nan nan nan nan nan nan nan nan
51 47 46 43 40 40 40 37 38 40 39 41 37 37 41 41 39 41 41 39 38 37 38 36 36 36 38 37 37 37 37 43 46 43 42 43 43 40 37 33 29 26 26 23 21 21 22 23 24 25 26 28 23 22 23 22 22 23 25 28 27 25 28 31 32 34 38 46 39 36 nan nan nan nan nan nan nan nan nan nan nan nan nan nan nan
52 47 47 45 44 43 41 39 39 40 42 40 42 39 39 39 40 43 41 41 41 40 40 39 36 35 36 38 39 38 39 42 44 46 44 43 41 43 42 37 33 28 28 29 30 32 30 29 25 24 27 31 29 27 26 25 23 22 25 28 28 26 27 29 31 34 40 44 42 41 35 36 nan nan nan nan nan nan nan nan nan nan nan nan nan
55 53 51 50 48 45 42 41 41 40 42 44 45 43 40 38 41 45 43 42 41 40 40 40 40 38 38 36 36 37 40 42 47 48 45 45 43 40 40 39 34 32 30 27 29 33 31 30 30 28 30 34 36 34 32 29 26 27 29 29 27 29 31 32 32 37 38 41 45 44 40 37 nan nan nan 42 43 39 nan nan nan nan nan nan nan
54 53 52 50 50 47 46 45 43 44 43 45 47 43 40 39 46 44 42 41 41 40 38 38 39 40 40 37 36 37 37 39 43 48 46 47 44 43 41 39 38 36 32 31 35 34 33 31 28 28 30 33 36 36 36 35 33 31 32 31 31 35 35 33 34 36 37 39 42 43 43 40 40 39 41 43 43 40 nan nan nan nan nan nan nan
58 55 52 53 53 53 50 49 48 47 47 46 49 45 41 44 45 43 42 40 41 44 41 38 38 40 38 40 39 37 36 36 39 47 47 47 44 44 43 41 41 36 30 32 39 40 38 38 34 31 32 36 38 37 38 39 37 35 35 32 33 37 35 35 36 38 40 40 41 42 44 43 42 44 42 41 nan nan 43 nan nan nan nan nan nan
57 59 58 58 55 54 52 51 51 49 48 48 52 48 46 47 44 42 39 40 42 42 42 41 40 40 40 44 42 39 36 34 39 46 47 48 45 44 44 43 43 36 29 32 39 42 49 46 42 39 35 37 42 42 39 39 38 38 36 34 37 37 36 36 39 40 40 40 46 47 43 44 46 44 43 41 nan nan nan nan nan nan nan nan nan
Wind_Direction
280 286 279 286 280 284 272 278 281 273 276 271 289 296 303 304 307 312 313 317 324 327 327 331 345 348 342 347 344 333 330 330 327 324 326 325 327 nan nan nan nan nan nan nan nan nan nan nan nan nan nan nan nan nan nan nan nan nan nan nan nan nan nan nan nan nan nan nan nan nan nan nan nan nan nan nan nan nan nan nan nan nan nan nan nan
268 273 279 278 272 272 268 264 261 259 275 274 284 292 299 302 306 310 nan 315 nan 320 324 326 335 350 345 344 334 330 324 326 327 326 325 328 325 nan nan nan nan nan nan nan nan nan nan nan nan nan nan nan nan nan nan nan nan nan nan nan nan nan nan nan nan nan nan nan nan nan nan nan nan nan nan nan nan nan nan nan nan nan nan nan nan
259 272 267 268 255 261 266 265 258 254 270 279 282 291 294 299 305 nan nan nan nan 310 327 315 329 356 344 339 329 325 322 322 326 326 330 325 326 322 nan nan nan nan nan nan nan nan nan nan nan nan nan nan nan nan nan nan nan nan nan nan nan nan nan nan nan nan nan nan nan nan nan nan nan nan nan nan nan nan nan nan nan nan nan nan nan
254 264 266 259 248 250 253 257 263 263 273 284 287 291 294 nan nan nan nan nan nan 307 319 310 323 344 331 340 333 327 322 320 330 325 328 325 325 327 325 nan nan nan nan nan nan nan nan nan nan nan nan nan nan nan nan nan nan nan nan nan nan nan nan nan nan nan nan nan nan nan nan nan nan nan nan nan nan nan nan nan nan nan nan nan nan
251 257 262 255 247 244 244 248 251 264 272 291 297 288 nan nan nan nan nan nan 305 306 313 309 316 327 340 335 333 332 318 320 322 324 328 327 328 326 326 nan nan nan nan nan nan nan nan nan nan nan nan nan nan nan nan nan nan nan nan nan nan nan nan nan nan nan nan nan nan nan nan nan nan nan nan nan nan nan nan nan nan nan nan nan nan
246 246 246 246 243 241 241 241 241 264 272 279 289 286 291 nan nan nan nan nan 307 306 308 311 312 323 335 339 336 326 317 320 320 321 325 329 328 326 328 329 nan nan nan nan nan nan nan nan nan nan nan nan nan nan nan nan nan nan nan nan nan nan nan nan nan nan nan nan nan nan nan nan nan nan nan nan nan nan nan nan nan nan nan nan nan
244 238 238 239 242 241 241 237 240 251 265 274 282 284 288 297 nan nan nan nan nan 305 309 310 315 322 331 340 334 319 316 314 315 323 327 330 328 328 329 329 nan nan nan nan nan nan nan nan nan nan nan nan nan nan nan nan nan nan nan nan nan nan nan nan nan nan nan nan nan nan nan nan nan nan nan nan nan nan nan nan nan nan nan nan nan
247 239 232 236 238 238 239 239 244 246 258 268 278 282 286 293 nan nan nan nan nan nan 307 310 316 324 327 334 335 321 317 315 319 328 330 328 330 327 329 332 nan nan nan nan nan nan nan nan nan nan nan nan nan nan nan nan nan nan nan nan nan nan nan nan nan nan nan nan nan nan nan nan nan nan nan nan nan nan nan nan nan nan nan nan nan
252 242 230 230 233 234 237 244 244 245 254 266 273 279 284 288 296 nan 306 nan nan nan nan nan 312 319 327 333 335 328 323 319 323 326 327 329 330 330 330 333 331 nan nan nan nan nan nan nan nan nan nan nan nan nan nan nan nan nan nan nan nan nan nan nan nan nan nan nan nan nan nan nan nan nan nan nan nan nan nan nan nan nan nan nan nan
254 247 230 227 232 233 236 243 243 244 252 262 268 272 281 295 299 302 307 nan nan nan nan nan 308 311 321 329 331 324 324 327 328 327 329 332 331 336 332 329 331 nan nan nan nan nan nan nan nan nan nan nan nan nan nan nan nan nan nan nan nan nan nan nan nan nan nan nan nan nan nan nan nan nan nan nan nan nan nan nan nan nan nan nan nan
254 251 235 229 233 233 231 241 240 243 251 261 266 272 280 292 306 300 304 312 nan nan nan nan nan 310 318 325 324 327 321 322 323 335 330 331 334 338 335 332 331 333 334 nan nan nan nan nan nan nan nan nan nan nan nan nan nan nan nan nan nan nan nan nan nan nan nan nan nan nan nan nan nan nan nan nan nan nan nan nan nan nan nan nan nan
249 250 238 229 230 232 230 237 237 241 250 259 265 268 284 295 308 301 306 311 314 nan nan 306 307 311 315 312 313 315 328 322 330 342 331 330 339 338 338 334 333 332 335 335 nan nan nan nan nan nan nan nan nan nan nan nan nan nan nan nan nan nan nan nan nan nan nan nan nan nan nan nan nan nan nan nan nan nan nan nan nan nan nan nan nan
242 250 241 231 227 228 228 231 232 235 241 250 260 268 274 281 293 292 301 311 316 314 312 307 306 307 306 310 310 313 320 325 336 338 335 334 338 336 336 337 336 332 334 334 338 nan nan nan nan nan nan nan nan nan nan nan nan nan nan nan nan nan nan nan nan nan nan nan nan nan nan nan nan nan nan nan nan nan nan nan nan nan nan nan nan
235 245 245 239 234 231 230 229 228 228 232 243 257 261 273 278 281 293 300 306 308 318 306 308 311 314 311 307 312 316 322 327 339 337 337 339 339 335 337 342 341 335 331 334 336 nan nan nan nan nan nan nan nan nan nan nan nan nan nan nan nan nan nan nan nan nan nan nan nan nan nan nan nan nan nan nan nan nan nan nan nan nan nan nan nan
236 241 242 241 241 243 243 236 230 227 229 237 247 261 267 283 290 289 293 295 297 305 310 314 nan nan 308 304 313 318 320 327 335 341 337 341 339 339 338 342 346 340 332 334 334 333 332 nan nan nan nan nan nan nan nan nan nan nan nan nan nan nan nan nan nan nan nan nan nan nan nan nan nan nan nan nan nan nan nan nan nan nan nan nan nan
238 240 237 240 244 248 252 247 237 231 231 236 245 258 271 281 287 290 286 291 298 303 309 313 nan 307 312 313 307 309 312 322 326 330 340 342 341 339 335 337 342 342 336 335 336 331 330 nan nan nan nan nan nan nan nan nan nan nan nan nan nan nan nan nan nan nan nan nan nan nan nan nan nan nan nan nan nan nan nan nan nan nan nan nan nan
240 241 236 239 244 242 244 245 237 234 231 234 240 249 264 273 281 281 290 285 292 292 302 308 322 310 305 307 307 306 312 301 304 311 323 330 339 338 333 338 340 338 337 339 334 328 328 332 333 nan nan nan nan nan nan nan nan nan nan nan nan nan nan nan nan nan nan nan nan nan nan nan nan nan nan nan nan nan nan nan nan nan nan nan nan
243 245 238 236 239 239 240 237 233 232 231 230 236 244 257 270 277 279 290 292 281 288 295 301 312 318 326 309 291 284 297 305 309 311 311 318 322 330 333 338 339 336 336 335 335 329 325 326 331 338 nan nan nan nan nan nan nan nan nan nan nan nan nan nan nan nan nan nan nan nan nan nan nan nan nan nan nan nan nan nan nan nan nan nan nan
243 243 232 232 232 234 237 231 226 227 230 231 237 246 253 263 264 275 275 280 281 285 295 299 298 314 330 331 325 302 302 301 309 308 311 316 318 320 327 333 335 338 337 335 332 326 322 324 330 337 341 nan nan nan nan nan nan nan nan nan nan nan nan nan nan nan nan nan nan nan nan nan nan nan nan nan nan nan nan nan nan nan nan nan nan
241 238 230 225 224 225 231 231 226 225 230 235 240 247 248 251 258 271 268 270 282 278 291 295 305 312 331 336 339 333 328 326 324 312 309 308 316 318 321 326 327 329 333 331 329 325 323 324 330 334 337 342 340 nan nan nan nan nan nan nan nan nan nan nan nan nan nan nan nan nan nan nan nan nan nan nan nan nan nan nan nan nan nan nan nan
237 237 229 224 223 223 228 230 228 229 234 237 242 250 258 258 261 267 271 274 273 274 284 296 302 306 314 328 332 332 330 328 326 325 320 317 319 317 323 322 321 323 328 328 325 321 321 322 325 332 335 338 339 340 nan nan nan nan nan nan nan nan nan nan nan nan nan nan nan nan nan nan nan nan nan nan nan nan nan nan nan nan nan nan nan
234 239 235 230 230 230 229 232 231 229 232 240 249 253 260 261 264 265 267 273 272 277 280 287 297 304 314 317 320 325 328 325 326 326 326 327 321 318 320 315 317 323 327 326 327 324 321 318 321 330 333 331 333 338 341 341 339 nan nan nan nan nan nan nan nan nan nan nan nan nan nan nan nan nan nan nan nan nan nan nan nan nan nan nan nan
231 236 242 239 234 234 232 234 236 234 235 244 251 256 260 261 258 263 268 278 270 276 281 286 289 300 312 312 318 320 321 324 324 324 324 320 322 325 323 320 319 320 318 324 322 322 320 317 320 326 327 327 329 332 335 337 nan nan nan nan nan nan nan nan nan nan nan nan nan nan nan nan nan nan nan nan nan nan nan nan nan nan nan nan nan
233 235 240 242 237 234 237 236 239 241 242 245 250 255 257 260 260 259 260 270 269 270 274 277 296 296 308 309 315 318 320 321 321 322 323 322 322 322 316 310 318 316 313 313 321 318 318 319 321 323 323 320 324 327 327 331 338 nan nan nan nan nan nan nan nan nan nan nan nan nan nan nan nan nan nan nan nan nan nan nan nan nan nan nan nan
229 232 236 242 236 234 238 239 239 242 244 248 249 257 258 258 261 265 261 267 264 270 271 278 286 294 299 304 310 318 324 322 321 322 322 319 320 319 315 304 320 309 313 315 315 317 317 320 321 319 319 320 320 320 322 326 334 nan nan nan nan nan nan nan nan nan nan nan nan nan nan nan nan nan nan nan nan nan nan nan nan nan nan nan nan
225 227 230 237 233 228 232 235 235 241 246 247 248 252 257 255 258 259 265 262 260 269 270 272 273 285 286 295 307 315 320 320 321 322 324 323 324 325 316 315 320 310 310 311 312 311 314 318 319 317 317 319 318 316 318 325 331 nan nan nan nan nan nan nan nan nan nan nan nan nan nan nan nan nan nan nan nan nan nan nan nan nan nan nan nan
219 220 225 231 232 228 231 232 232 238 243 245 245 247 251 250 251 256 255 256 261 263 268 276 275 283 291 293 297 307 311 314 316 321 323 326 325 322 318 310 307 312 310 309 307 315 313 313 314 317 318 315 315 316 318 323 332 nan nan nan nan nan nan nan nan nan nan nan nan nan nan nan nan nan nan nan nan nan nan nan nan nan nan nan nan
215 218 224 227 231 231 231 231 232 235 239 243 245 243 246 246 244 247 251 250 257 270 267 273 275 282 285 291 294 301 307 310 312 317 321 318 320 318 317 316 311 303 301 306 307 307 312 313 313 318 317 317 317 317 320 nan 328 nan nan nan nan nan nan nan nan nan nan nan nan nan nan nan nan nan nan nan nan nan nan nan nan nan nan nan nan
213 213 223 227 230 233 232 231 231 232 237 240 240 239 240 239 238 240 242 248 252 261 265 267 270 277 279 290 291 296 304 311 311 315 316 317 319 317 315 315 309 305 301 304 306 305 309 311 309 311 317 317 316 316 319 322 324 nan nan nan nan 339 nan nan nan nan nan nan nan nan nan nan nan nan nan nan nan nan nan nan nan nan nan nan nan
215 212 220 227 229 233 232 233 233 234 237 239 239 238 236 235 240 238 238 245 251 252 256 264 269 271 278 283 287 294 300 304 308 311 313 316 319 315 310 309 308 308 302 307 305 300 302 307 312 308 306 311 313 315 316 321 nan nan nan nan nan nan nan nan nan nan nan nan nan nan nan nan nan nan nan nan nan nan nan nan nan nan nan nan nan
220 217 219 223 227 230 232 231 232 233 236 237 239 239 240 238 239 237 237 240 246 256 259 264 268 273 281 286 286 288 293 301 304 306 312 316 319 315 309 303 309 313 307 307 304 302 302 304 305 304 304 310 312 312 315 318 314 nan nan nan nan nan nan nan nan nan nan nan nan nan nan nan nan nan nan nan nan nan nan nan nan nan nan nan nan
223 219 218 220 224 227 229 229 229 231 234 237 239 239 240 239 240 239 237 242 249 253 258 267 266 272 281 285 286 284 286 292 300 305 313 318 316 312 310 308 310 311 311 311 313 306 304 306 303 306 313 310 313 315 317 318 nan nan nan nan nan nan nan nan nan nan nan nan 346 346 344 345 nan nan nan nan nan nan nan nan nan nan nan nan nan
227 221 219 220 221 223 225 227 227 232 235 239 241 240 240 240 241 242 241 243 249 252 256 266 274 277 281 282 283 283 282 287 291 298 306 313 316 311 309 311 313 318 320 318 319 311 307 308 308 309 309 314 317 317 320 319 320 nan nan nan 335 nan nan nan nan 339 341 341 344 343 342 341 nan nan nan nan nan nan nan nan nan nan nan nan nan
240 228 223 220 220 223 224 228 231 232 237 242 245 244 244 244 244 242 242 246 248 251 259 265 271 272 275 279 280 281 282 285 286 292 294 302 309 311 314 314 318 324 323 321 322 315 311 308 314 313 314 318 320 321 321 320 322 324 328 nan 328 336 339 336 340 328 nan 337 340 341 340 341 nan nan nan nan nan nan nan nan nan nan nan nan nan
253 247 233 225 224 226 228 223 223 231 236 242 244 247 249 248 247 247 246 247 249 252 259 265 267 270 274 276 280 279 276 281 284 284 283 287 292 301 310 309 317 321 328 330 319 318 319 316 313 313 315 318 321 320 320 319 324 328 329 330 330 330 333 336 333 327 nan 334 335 338 339 339 nan nan nan nan nan nan nan nan nan nan nan nan nan
252 254 245 233 228 229 230 232 225 228 231 238 243 244 248 250 248 248 248 248 249 251 255 261 265 267 273 275 275 277 280 284 285 283 282 282 283 284 293 298 306 316 316 325 333 322 312 312 311 317 318 319 320 323 321 319 323 327 325 326 330 332 332 nan nan 335 nan 330 332 335 338 338 nan nan nan nan nan nan nan nan nan nan nan nan nan
250 253 251 242 234 231 229 229 229 230 231 233 238 242 243 246 248 248 247 246 246 248 251 256 261 266 271 275 276 276 275 278 281 282 279 288 285 285 288 286 292 297 302 313 323 325 325 326 314 310 309 313 314 316 320 318 321 326 327 329 330 329 330 331 329 325 312 326 328 334 335 nan nan nan nan nan nan nan nan nan nan nan nan nan nan
252 251 252 250 241 233 229 230 231 231 232 233 232 235 238 242 246 248 249 248 248 249 251 255 262 266 269 276 278 278 276 278 279 278 278 284 283 286 293 291 294 297 301 304 308 321 328 320 316 308 308 308 314 317 319 317 318 318 318 325 328 328 327 328 329 328 325 320 322 324 328 nan nan nan nan nan nan nan nan nan nan nan nan nan nan
252 252 253 258 252 238 229 231 235 235 234 236 235 236 238 241 246 248 250 251 249 248 252 257 262 267 271 273 277 282 283 282 282 282 280 282 281 287 290 293 297 297 296 299 307 315 317 314 313 312 308 311 315 317 317 316 318 318 316 317 324 322 325 330 330 328 324 324 325 325 nan nan nan nan nan nan nan nan nan nan nan nan nan nan nan
245 252 252 253 252 243 233 234 239 238 235 236 238 238 239 241 243 246 248 249 251 252 251 255 261 267 273 276 280 287 290 291 290 288 284 282 281 284 285 285 289 295 298 300 305 307 308 310 312 312 312 312 312 315 314 308 307 312 312 315 319 319 321 324 327 326 326 nan 323 nan nan nan nan nan nan nan nan nan nan nan nan nan nan nan nan
237 245 247 247 251 247 240 237 239 239 235 234 235 236 236 239 245 248 249 250 253 254 256 258 261 266 271 276 282 289 293 294 299 293 288 284 282 284 284 285 290 295 296 297 302 305 305 308 311 309 311 315 319 316 315 315 317 316 313 316 319 315 315 317 324 324 323 nan nan nan nan nan nan nan nan nan nan nan nan nan nan nan nan nan nan
240 240 248 251 251 249 244 238 238 239 236 233 236 240 238 240 245 247 249 250 254 257 258 260 262 265 271 276 280 290 291 294 298 299 292 285 283 279 281 288 290 293 296 295 298 301 303 308 309 308 314 316 316 318 317 317 317 317 316 317 320 317 313 317 319 323 320 nan nan nan nan nan nan nan nan nan nan nan nan nan nan nan nan nan nan
243 243 240 249 252 249 245 243 244 240 234 232 242 244 244 245 243 244 248 251 253 256 260 263 265 266 267 271 274 280 283 286 294 300 299 297 288 281 276 276 284 295 296 293 294 298 301 302 304 308 312 317 315 310 311 312 316 320 320 321 322 316 314 314 317 317 320 325 nan nan nan nan nan nan nan nan nan nan nan nan nan nan nan nan nan
240 241 242 245 248 248 243 242 244 241 234 234 243 246 248 252 249 245 245 246 250 254 259 264 264 265 266 267 268 269 277 285 285 288 296 302 298 287 285 290 292 286 284 288 290 296 298 298 303 309 309 311 306 306 309 309 312 319 325 326 324 320 317 316 315 313 309 318 323 nan nan nan nan nan nan nan nan nan nan nan nan nan nan nan nan
235 239 241 243 249 250 248 247 244 241 234 235 243 249 254 257 258 253 249 248 248 254 259 263 264 265 265 265 265 266 269 283 283 285 288 294 296 293 286 286 290 296 294 294 290 285 285 295 301 306 309 302 304 305 304 308 309 316 320 324 324 324 321 320 315 312 310 315 318 nan nan nan nan nan nan nan nan nan nan nan nan nan nan nan nan
235 238 241 242 246 250 250 251 249 247 243 239 243 252 261 262 261 259 255 255 252 254 258 260 260 265 269 269 268 268 268 273 278 287 289 288 288 286 280 275 276 286 290 296 301 303 298 294 300 307 304 301 300 295 296 303 311 312 315 316 319 323 324 321 316 314 312 312 318 319 nan nan nan nan nan nan nan nan nan nan nan nan nan nan nan
239 243 244 244 246 248 250 252 253 254 251 251 254 258 263 264 260 259 257 256 253 253 255 257 257 260 265 268 271 274 277 280 281 288 289 288 285 281 281 280 280 282 285 287 291 291 292 295 309 310 299 297 299 297 294 297 304 303 301 304 309 313 314 314 315 317 315 316 317 315 321 318 nan nan nan nan nan nan nan nan nan nan nan nan nan
237 241 243 242 243 246 249 252 252 253 255 262 263 267 270 265 263 255 257 257 255 253 254 254 254 254 256 263 268 271 275 281 285 292 291 286 285 282 280 279 280 281 282 287 292 292 294 294 297 307 301 295 289 289 290 292 294 292 292 293 303 308 310 312 317 315 318 316 317 316 314 315 nan nan nan 317 317 323 nan nan nan nan nan nan nan
236 237 238 241 245 246 248 250 251 249 251 260 265 269 271 268 258 254 258 257 254 254 255 256 253 253 256 261 264 264 268 271 278 287 288 286 282 280 277 278 277 278 279 279 288 296 297 297 295 297 296 292 290 291 288 287 286 285 288 294 305 304 307 313 314 313 312 312 315 315 311 312 311 313 315 315 314 321 nan nan nan nan nan nan nan
235 237 240 240 242 244 245 247 248 249 251 256 266 268 271 268 264 257 257 258 254 251 254 257 255 253 256 264 261 261 264 269 278 284 286 285 282 280 279 278 275 276 281 277 271 278 291 292 295 292 288 289 291 293 294 292 290 287 287 296 300 299 306 309 308 307 307 310 312 311 308 310 309 310 313 312 nan nan 321 nan nan nan nan nan nan
233 236 240 242 242 243 244 244 246 247 249 252 261 265 267 270 267 259 262 258 255 257 258 255 255 254 253 259 267 262 260 266 276 282 287 285 283 284 282 279 274 275 281 276 271 271 272 275 280 283 280 284 287 290 296 302 296 290 291 296 292 297 301 303 302 303 306 309 307 309 307 306 307 310 311 310 nan nan nan nan nan nan nan nan nan